Regional Weather Roundup
Issued by NWS

Home | Current Version | Previous Version | Graphics & Text | Print | Product List | Glossary On
Versions: 1 2 3 4 5 6 7 8 9 10 11 12 13 14 15 16 17 18 19 20 21 22 23 24 25 26 27 28 29 30 31 32 33 34 35 36 37 38 39 40 41 42 43 44 45 46 47 48 49 50
000
ASUS43 KOAX 240010
RWRNE

WEATHER ROUNDUP FOR NEBRASKA
NATIONAL WEATHER SERVICE OMAHA NE
700 PM CDT MON MAY 23 2016

NOTES: SATELLITE DATA IS BEING USED TO AUGMENT CLOUD COVER ABOVE
       12000 FEET.
       "FAIR" INDICATES FEW OR NO CLOUDS BELOW 12,000 FEET WITH NO
       SIGNIFICANT WEATHER AND/OR OBSTRUCTIONS TO VISIBILITY.

  * THESE STATIONS DO NOT REPORT WEATHER SUCH AS RAIN...SNOW OR FOG.

NEZ001>004-019>022-054>056-240100-
NEBRASKA PANHANDLE

CITY           SKY/WX    TMP DP  RH WIND       PRES   REMARKS
SCOTTSBLUFF    LGT RAIN  56  43  61 S20       29.89R
6HR MIN TEMP:  56; 6HR MAX TEMP:  73; 6HR PCP:  0.02;

ALLIANCE       LGT RAIN  59  39  47 S12G25    29.87R
6HR MIN TEMP:  59; 6HR MAX TEMP:  74; 6HR PCP: TRACE;

CHADRON        CLOUDY    72  32  23 W6        29.76S
6HR MIN TEMP:  68; 6HR MAX TEMP:  76;

KIMBALL        CLOUDY    57  37  47 NE10      29.91R
SIDNEY         CLOUDY    63  40  42 W9        29.89R
6HR MIN TEMP:  60; 6HR MAX TEMP:  74; 6HR PCP: TRACE;

$$

NEZ057>060-069>072-079>082-240100-
SOUTHWEST NEBRASKA

CITY           SKY/WX    TMP DP  RH WIND       PRES   REMARKS
NORTH PLATTE   SUNNY     76  45  33 NW6       29.78S HAZE
6HR MIN TEMP:  72; 6HR MAX TEMP:  78;

IMPERIAL       SUNNY     75  37  25 SE6       29.81S
6HR MIN TEMP:  71; 6HR MAX TEMP:  76;

LEXINGTON      MOSUNNY   76  53  44 CALM      29.76S
MCCOOK         SUNNY     77  46  33 CALM      29.78R
6HR MIN TEMP:  72; 6HR MAX TEMP:  80;

OGALLALA       SUNNY     74  34  23 S10       29.81R
$$

NEZ005>010-023>029-035>040-094-240100-
NORTH CENTRAL NEBRASKA

CITY           SKY/WX    TMP DP  RH WIND       PRES   REMARKS
VALENTINE      SUNNY     76  30  18 W13       29.74R
6HR MIN TEMP:  71; 6HR MAX TEMP:  79;

AINSWORTH      SUNNY     76  35  22 SW12      29.75S
BROKEN BOW     SUNNY     78  43  28 W8        29.76S
6HR MIN TEMP:  70; 6HR MAX TEMP:  78;

O`NEILL        SUNNY     78  49  35 SW7       29.74S
ORD            PTSUNNY   76  52  43 S5        29.73F
6HR MIN TEMP:  71; 6HR MAX TEMP:  78;

THEDFORD       SUNNY     77  35  22 W10       29.78S
$$

NEZ041-046>049-061>064-073>077-083>087-240100-
SOUTH CENTRAL NEBRASKA

CITY           SKY/WX    TMP DP  RH WIND       PRES   REMARKS
GRAND ISLAND   CLOUDY    68  63  84 NW3       29.76R THUNDER
6HR MIN TEMP:  67; 6HR MAX TEMP:  77; 6HR PCP:  0.11;

AURORA         LGT RAIN  70  67  89 SW8       29.76S
HASTINGS       PTSUNNY   69  65  86 SE6       29.75F
6HR MIN TEMP:  69; 6HR MAX TEMP:  74; 6HR PCP:  0.19;

HEBRON         MOSUNNY   74  62  65 S13       29.76S
HOLDREGE       MOSUNNY   75  56  51 CALM      29.76R
KEARNEY *      CLOUDY    73  63  68 N6        29.76R
YORK           CLOUDY    73  59  60 S9        29.73F
$$

NEZ011>018-030>034-042>045-240100-
NORTHEAST NEBRASKA

CITY           SKY/WX    TMP DP  RH WIND       PRES   REMARKS
NORFOLK        CLOUDY    74  62  66 S9        29.74R
6HR MIN TEMP:  73; 6HR MAX TEMP:  77;

ALBION         CLOUDY    73  60  64 S8        29.75R
BLAIR          PTSUNNY   68  64  88 S8        29.79R
FREMONT        CLOUDY    66  65  97 E8        29.77F THUNDER
TEKAMAH        LGT RAIN  67  64  90 S10       29.78S
6HR MIN TEMP:  67; 6HR MAX TEMP:  80; 6HR PCP:  0.29;

WAYNE          CLOUDY    71  67  87 S12G17    29.76R
$$

NEZ050>053-065>068-078-088>093-240100-
SOUTHEAST NEBRASKA

CITY           SKY/WX    TMP DP  RH WIND       PRES   REMARKS
LINCOLN        CLOUDY    75  63  66 SE14      29.75F
6HR MIN TEMP:  74; 6HR MAX TEMP:  79; 6HR PCP: TRACE;

OMAHA EPPLEY   PTSUNNY   72  64  76 S7        29.77F
6HR MIN TEMP:  69; 6HR MAX TEMP:  77; 6HR PCP:  0.04;

BEATRICE       CLOUDY    74  61  64 S14       29.78R
FALLS CITY     CLOUDY    71  62  73 SE9       29.79F
6HR MIN TEMP:  69; 6HR MAX TEMP:  75; 6HR PCP: TRACE;

NEBRASKA CITY  PTSUNNY   71  60  70 S12       29.79S
PLATTSMOUTH    CLOUDY    74  61  61 S10       29.78S
$$

NEZ044-045-051>053-067-240100-
OMAHA AREA

CITY           SKY/WX    TMP DP  RH WIND       PRES   REMARKS
OMAHA EPPLEY   PTSUNNY   72  64  76 S7        29.77F
6HR MIN TEMP:  69; 6HR MAX TEMP:  77; 6HR PCP:  0.04;

BLAIR          PTSUNNY   68  64  88 S8        29.79R
FREMONT        CLOUDY    66  65  97 E8        29.77F THUNDER
MILLARD        CLOUDY    73  63  69 S6        29.78R
OFFUTT AFB     CLOUDY    73  63  71 SE8       29.77F
PLATTSMOUTH    CLOUDY    74  61  61 S10       29.78S
WAHOO          FAIR      71  66  83 SE13      29.77S
$$



USA.gov is the U.S. government's official web portal to all federal, state and local government web resources and services.